Regional Weather Roundup
Issued by NWS Midland/Odessa, TX

Home | Current Version | Previous Version | Text Only | Print | Product List | Glossary On
Versions: 1 2 3 4 5 6 7 8 9 10 11 12 13 14 15 16 17 18 19 20 21 22 23 24 25 26 27 28 29 30 31 32 33 34 35 36 37 38 39 40 41 42 43 44 45 46 47 48 49 50
000
ASUS44 KMAF 060310
RWRMAF
MIDLAND AREA WEATHER ROUNDUP
NATIONAL WEATHER SERVICE MIDLAND TX
900 PM CST THU MAR 05 2015

...IN SOUTHWEST TEXAS AND SOUTHEAST NEW MEXICO...

CITY           SKY/WX    TMP DP  RH WIND       PRES   REMARKS
ALPINE         CLOUDY    32  30  93 CALM      30.48S
ANDREWS        FAIR      33  26  72 S7        30.45S WCI  27
ARTESIA        CLEAR     32  27  80 SE12      30.41R WCI  23
BIG SPRING     CLEAR    N/A N/A N/A SE6       30.50S
CARLSBAD       CLEAR     31  25  78 S8        30.41S WCI  23
DRYDEN           N/A     39  27  62 CALM      30.48S
FORT STOCKTON  CLEAR     30  27  88 S7        30.49R WCI  23
GUAD PASS      NOT AVBL
HOBBS          CLEAR     32  28  86 S8        30.42S WCI  25
MARFA          CLEAR     28  27  93 CALM      30.43R
MIDLAND AIRPK  CLEAR     36  24  62 S6        30.47S WCI  31
MIDLAND INTL   CLEAR     35  24  64 S8        30.46R WCI  29
ODESSA         CLEAR     35  22  58 S7        30.46S WCI  29
PECOS          CLEAR     30  27  89 S5        30.50R WCI  25
PRESIDIO       FAIR      44  28  52 NE10      30.43R WCI  38
SEMINOLE       CLEAR     31  25  77 CALM      30.45R
SNYDER         CLEAR     32  20  60 SE8       30.49R WCI  25
WINK           CLEAR     33  26  75 SW7       30.46R WCI  27
$$
...OTHER STATIONS IN TEXAS...

CITY           SKY/WX    TMP DP  RH WIND       PRES   REMARKS
ABILENE        FAIR      31  22  69 SE5       30.53R WCI  26
AMARILLO       CLEAR     31  24  75 S10       30.38R WCI  22
AUSTIN         PTCLDY    32  22  66 N10       30.58R WCI  24
BROWNSVILLE    CLOUDY    50  36  58 N14G20    30.50R
CORPUS CHRISTI MOCLDY    46  28  49 N16       30.54R WCI  39
DALLAS FTW     CLEAR     33  21  61 S5        30.59R WCI  29
DEL RIO        CLEAR     44  27  51 NE7       30.54R
EL PASO        CLEAR     44  23  43 SE6       30.36R
HOUSTON INT    CLEAR     41  25  53 N8        30.54R WCI  36
LUBBOCK        CLEAR     33  25  72 S9        30.41S WCI  25
SAN ANGELO     CLEAR     33  20  58 SE6       30.52R WCI  28
SAN ANTONIO    PTCLDY    40  21  46 N8        30.57R WCI  34
WACO           CLEAR     29  22  75 NE6       30.61R WCI  23
WICHITA FALLS  NOT AVBL
$$
...OTHER LOCATIONS IN NEW MEXICO...

CITY           SKY/WX    TMP DP  RH WIND       PRES   REMARKS
ALAMAGORDO     CLEAR     36  23  60 NE6       30.37R WCI  31
ALBUQUERQUE    CLEAR     46  11  24 N8        30.36R
CANNON AFB     CLEAR     28  21  74 SW9       30.36R WCI  19
CLOVIS         CLEAR     28  19  69 SW10      30.36R WCI  19
HOLLOMAN AFB   CLEAR     39  24  55 N5        30.35S WCI  35
ROSWELL        CLEAR     32  24  72 S9        30.38S WCI  24
RUIDOSO        CLEAR     32  21  64 SW10      30.36S WCI  24
SANTA FE       CLEAR     32  14  47 N10       30.32R WCI  24
TRUTH OR CONSE CLEAR     45  13  27 S3        30.34R
TUCUMCARI      CLEAR     35  23  61 SW5       30.33R WCI  31
$$


USA.gov is the U.S. government's official web portal to all federal, state and local government web resources and services.